sat.trackr.live / text

‹ back to catalog

STARLINK-31029

NORAD 58712 · 2024-002H

PAYLOAD ACTIVE UNKNOWN

§ Identity

Operator
Country
US
Launch date
2024-01-03
Launch site
AFWTR
Launch vehicle
Mass (kg)
RCS (m²)

Purposes: comms

External: N2YO · Heavens-Above · Gunter

§ Orbital elements

Epoch: 2026-09-20T16:29:28.794912Z

Period
93.85 min
Inclination
53.1590°
Eccentricity
0.0000771
Mean motion
15.34389163 rev/d
Perigee alt
462.2 km
Apogee alt
463.3 km
Semi-major
6,840.9 km
B*
2.9596e-5
RAAN
42.5456°
Arg perigee
28.4755°
Mean anomaly
331.6289°
Rev number
15,189

§ Raw data

STARLINK-310291 58712U 24002H   26263.68713883  .00000624  00000+0  29596-4 0  99902 58712  53.1590  42.5456 0000771  28.4755 331.6289 15.34389163151899

JSON: /api/v1/satellites/58712 · /tle

For live sub-satellite position, see the globe view (requires WebGL).

§ Visibility from observer

Set your observer location to see the next 7 days of passes ≥ 10°. The values pass through the URL so the page stays shareable.

No JS? Fill the form by hand. The geolocation button needs JavaScript.